This is the latest recevied weather packets stored in our database for station/object W8KVG. If no packets are shown the sender has not sent any weather packets the latest 10 day(s).
| Time | Temp. | Humidity | Pressure | Rain* | Wind** | Luminosity | Snow |
|---|---|---|---|---|---|---|---|
| 1777650481 | 10.56° C | 78% | 1011.5 hPa | 0 mm | - | 172 W/m² | - |
| 1777650178 | 10° C | 80% | 1011.7 hPa | 0 mm | - | 139 W/m² | - |
| 1777649876 | 10° C | 79% | 1011.5 hPa | 0 mm | - | 107 W/m² | - |
| 1777649573 | 9.44° C | 79% | 1011.7 hPa | 0 mm | - | 75 W/m² | - |
| 1777649269 | 10° C | 79% | 1011.7 hPa | 0 mm | - | 80 W/m² | - |
| 1777648966 | 10.56° C | 77% | 1011.7 hPa | 0 mm | - | 88 W/m² | - |
| 1777648664 | 10° C | 77% | 1011.7 hPa | 0 mm | - | 110 W/m² | - |
| 1777648359 | 10.56° C | 79% | 1011.8 hPa | 0 mm | - | 146 W/m² | - |
| 1777648056 | 9.44° C | 82% | 1011.9 hPa | 0 mm | - | 164 W/m² | - |
| 1777647752 | 8.89° C | 82% | 1011.7 hPa | 0 mm | - | 102 W/m² | - |
| 1777647448 | 8.89° C | 82% | 1011.6 hPa | 0 mm | - | 75 W/m² | - |
| 1777647146 | 8.89° C | 82% | 1011.6 hPa | 0 mm | - | 66 W/m² | - |
| 1777646842 | 8.89° C | 82% | 1011.7 hPa | 0 mm | - | 80 W/m² | - |
| 1777646538 | 8.89° C | 83% | 1011.8 hPa | 0 mm | - | 103 W/m² | - |
| 1777646235 | 8.89° C | 84% | 1011.8 hPa | 0 mm | - | 74 W/m² | - |
| 1777645932 | 8.89° C | 84% | 1011.7 hPa | 0 mm | - | 63 W/m² | - |
| 1777645629 | 8.33° C | 83% | 1011.8 hPa | 0 mm | - | 70 W/m² | - |
| 1777645325 | 8.89° C | 84% | 1011.7 hPa | 0 mm | - | 63 W/m² | - |
| 1777645020 | 8.89° C | 85% | 1011.6 hPa | 0 mm | - | 109 W/m² | - |
| 1777644718 | 8.33° C | 84% | 1011.9 hPa | 0 mm | - | 108 W/m² | - |
| 1777644415 | 8.33° C | 84% | 1011.7 hPa | 0 mm | - | 116 W/m² | - |
| 1777644111 | 7.78° C | 84% | 1011.8 hPa | 0 mm | - | 119 W/m² | - |
| 1777643808 | 7.78° C | 84% | 1011.7 hPa | 0 mm | - | 114 W/m² | - |
| 1777643505 | 7.78° C | 86% | 1011.7 hPa | 0 mm | - | 130 W/m² | - |
| 1777643201 | 7.78° C | 88% | 1011.9 hPa | 0 mm | - | 125 W/m² | - |
* Rain latest hour (hover to see other rain measurements)
** Current wind speed in m/s (hover to see current wind gust speed)